COSMOS 1275 DEB, 17793

Orbit data source: Space-Track

COSMOS 1275 DEB, 17793 is space debris in LEO originally from a launch on Thu, 04 Jun 1981 UTC launched from the Plesetsk Missile And Space Complex (PKMTR). Debris objects in space refer to the collection of defunct objects orbiting the Earth. Examples of debris include non-operational satellites, rocket bodies, and fragments generated from explosions, collisions, or faulty payload assembly.

Loading next visibility...
Identifier
17793, 1981-053LP
Orbit
LEO
Country
Flag of CISCIS
Related business
Manufacturer
Unknown
Mission
Spacecraft
Bus & Motor
Unknown
Mass
Unknown
Launch date (UTC)
1981-06-04 (45 years ago)
Launch vehicle
Unknown
Launch site
Plesetsk Missile And Space Complex (PKMTR)
Object type
Payload
Rocket body
Debris
Shape & HBR
Unknown shape, 0.1 m
Radar Cross Section
Small (<0.1 m²)

Expand to show TLE details & history
Last TLE update: 2 days ago

TLE from 2 days ago
0 COSMOS 1275 DEB
1 17793U 81053LP  25354.00353808  .00000331  00000-0  54113-3 0  9994
2 17793  83.1481 253.6822 0267749 263.8913 114.1545 13.32353678973370
Epoch: 2025-12-20T00:05Z
TLE epoch observation values (Epoch: 2025-12-20T00:05:05.690Z)
Latitude
20.65614°
Longitude
166.15524°
Altitude
1,227.175 km
Speed
7.201 km/s
True Right ascension
17h 05m 03s
True Declination
20° 32' 60"
Sunlit
Object was in daylight at epoch
Visualization orbit readout
Latitude
Unknown
Longitude
Unknown
Altitude
Unknown
Speed
Unknown
Apparent Right ascension
Unknown
Apparent Declination
Unknown
Sunlit
N/A
Visualization observer readout
Local Sidereal Time
16:20:44
Azimuth
Unknown
Elevation
Unknown
Doppler factor
Unknown
Orbital elements
Apogee altitude
1,336.262 km
Perigee altitude
933.93 km
Semi-major axis
7,513.233 km
Eccentricity
0.02677
Inclination
83.1481°
RAAN
253.6822°
Arg. of periapsis
263.8913°
True anomaly
116.91514°
Mean anomaly
114.1545°
Eccentric anomaly
115.5387°
Mean motion
3.33275 °/min
Orbital period
108.02 mins
BSTAR
0.00054113
Loading maneuver chart data...
Computing Atmospheric mass density...
Loading historical data...
Loading historical data...
Loading historical data...
Loading historical data...
Loading historical data...
Loading historical data...
Loading historical data...

Documentation

Showing up to 5 results
|